| time (UTC) | temp C | wind direction | speed KPH | gust KPH | rain 1hr cm | rain 24hr cm | rain mn cm | humidity % | barometer mb |
| 20260505003541 | 23 | 236 | 0.0 | 11.3 | 0.00 | 0.00 | 0.00 | 83 | 1018.2 |
| 20260505003046 | 23 | 0 | 3.2 | 11.3 | 0.00 | 0.00 | 0.00 | 83 | 1018.1 |
| 20260505002546 | 23 | 176 | 1.6 | 8.0 | 0.00 | 0.00 | 0.00 | 83 | 1018.2 |
| 20260505002044 | 23 | 0 | 0.0 | 4.8 | 0.00 | 0.00 | 0.00 | 84 | 1018.3 |
| 20260505001553 | 23 | 0 | 0.0 | 0.0 | 0.00 | 0.00 | 0.00 | 84 | 1018.3 |
| 20260505001043 | 22 | 0 | 0.0 | 3.2 | 0.00 | 0.00 | 0.00 | 87 | 1018.3 |
| 20260505000542 | 22 | 0 | 0.0 | 4.8 | 0.00 | 0.00 | 0.00 | 86 | 1018.3 |
| 20260505000057 | 22 | 208 | 0.0 | 8.0 | 0.00 | 0.00 | 0.00 | 84 | 1018.4 |
| 20260504235545 | 23 | 174 | 1.6 | 8.0 | 0.00 | 0.00 | 0.00 | 85 | 1018.4 |
| 20260504235044 | 23 | 0 | 0.0 | 1.6 | 0.00 | 0.00 | 0.00 | 86 | 1018.4 |
| 20260504234551 | 22 | 0 | 0.0 | 1.6 | 0.00 | 0.00 | 0.00 | 87 | 1018.4 |
| 20260504234041 | 22 | 168 | 0.0 | 1.6 | 0.00 | 0.00 | 0.00 | 88 | 1018.5 |
| 20260504233542 | 22 | 135 | 0.0 | 4.8 | 0.00 | 0.00 | 0.00 | 89 | 1018.6 |
| 20260504233052 | 22 | 0 | 1.6 | 4.8 | 0.00 | 0.00 | 0.00 | 89 | 1018.6 |
| 20260504232542 | 22 | 226 | 1.6 | 4.8 | 0.00 | 0.00 | 0.00 | 90 | 1018.6 |
| 20260504232046 | 22 | 269 | 0.0 | 6.4 | 0.00 | 0.00 | 0.00 | 92 | 1018.7 |
| 20260504231553 | 21 | 137 | 0.0 | 6.4 | 0.00 | 0.00 | 0.00 | 92 | 1018.6 |
| 20260504231044 | 21 | 193 | 1.6 | 6.4 | 0.00 | 0.00 | 0.00 | 92 | 1018.7 |
| 20260504230546 | 21 | 179 | 1.6 | 6.4 | 0.00 | 0.00 | 0.00 | 92 | 1018.6 |
| 20260504230052 | 21 | 238 | 1.6 | 6.4 | 0.00 | 0.00 | 0.00 | 93 | 1018.6 |
| 20260504225544 | 21 | 216 | 0.0 | 3.2 | 0.00 | 0.00 | 0.00 | 94 | 1018.7 |
| 20260504225046 | 21 | 195 | 1.6 | 3.2 | 0.00 | 0.00 | 0.00 | 95 | 1018.6 |
| 20260504224552 | 21 | 183 | 0.0 | 3.2 | 0.00 | 0.00 | 0.00 | 96 | 1018.6 |
| 20260504224043 | 20 | 210 | 0.0 | 4.8 | 0.00 | 0.00 | 0.00 | 97 | 1018.7 |
| 20260504223543 | 20 | 0 | 1.6 | 4.8 | 0.00 | 0.00 | 0.00 | 97 | 1018.7 |
| 20260504223053 | 20 | 208 | 0.0 | 1.6 | 0.00 | 0.00 | 0.00 | 98 | 1018.6 |
| 20260504222547 | 20 | 273 | 0.0 | 0.0 | 0.00 | 0.00 | 0.00 | 99 | 1018.6 |
| 20260504222044 | 20 | 0 | 0.0 | 0.0 | 0.00 | 0.00 | 0.00 | 99 | 1018.6 |
| 20260504221548 | 20 | 0 | 0.0 | 0.0 | 0.00 | 0.00 | 0.00 | 99 | 1018.6 |
| 20260504221043 | 20 | 0 | 0.0 | 0.0 | 0.00 | 0.00 | 0.00 | 99 | 1018.7 |
| 20260504220543 | 20 | 0 | 0.0 | 0.0 | 0.00 | 0.00 | 0.00 | 99 | 1018.6 |
| 20260504220055 | 19 | 0 | 0.0 | 0.0 | 0.00 | 0.00 | 0.00 | 99 | 1018.5 |
| 20260504215544 | 18 | 0 | 0.0 | 0.0 | 0.00 | 0.03 | 0.00 | 99 | 1018.5 |
| 20260504215042 | 18 | 0 | 0.0 | 0.0 | 0.00 | 0.03 | 0.00 | 99 | 1018.5 |
| 20260504214557 | 18 | 0 | 0.0 | 0.0 | 0.00 | 0.03 | 0.00 | 99 | 1018.5 |
| 20260504214044 | 18 | 0 | 0.0 | 0.0 | 0.00 | 0.03 | 0.00 | 98 | 1018.5 |
| 20260504213543 | 17 | 0 | 0.0 | 0.0 | 0.00 | 0.03 | 0.00 | 98 | 1018.5 |
| 20260504213055 | 18 | 0 | 0.0 | 0.0 | 0.00 | 0.03 | 0.00 | 98 | 1018.5 |
| 20260504212542 | 17 | 0 | 0.0 | 0.0 | 0.00 | 0.03 | 0.00 | 98 | 1018.4 |
| 20260504212045 | 17 | 0 | 0.0 | 0.0 | 0.00 | 0.03 | 0.00 | 99 | 1018.5 |
| 20260504211548 | 17 | 0 | 0.0 | 0.0 | 0.00 | 0.03 | 0.00 | 99 | 1018.4 |
| 20260504211043 | 17 | 0 | 0.0 | 0.0 | 0.00 | 0.03 | 0.00 | 98 | 1018.4 |
| 20260504210543 | 17 | 0 | 0.0 | 0.0 | 0.00 | 0.03 | 0.00 | 98 | 1018.4 |
| 20260504205543 | 17 | 0 | 0.0 | 0.0 | 0.00 | 0.05 | 0.00 | 98 | 1018.3 |
| 20260504205041 | 17 | 0 | 0.0 | 0.0 | 0.00 | 0.05 | 0.00 | 98 | 1018.2 |
| 20260504204601 | 17 | 0 | 0.0 | 0.0 | 0.00 | 0.05 | 0.00 | 99 | 1018.2 |
| 20260504204041 | 17 | 0 | 0.0 | 0.0 | 0.00 | 0.05 | 0.00 | 98 | 1018.1 |
| 20260504203543 | 17 | 0 | 0.0 | 0.0 | 0.00 | 0.05 | 0.00 | 98 | 1018.1 |
| 20260504203122 | 17 | 0 | 0.0 | 0.0 | 0.00 | 0.05 | 0.00 | 98 | 1018.1 |
| 20260504202542 | 17 | 0 | 0.0 | 0.0 | 0.00 | 0.05 | 0.00 | 98 | 1018.1 |
| 20260504202044 | 17 | 0 | 0.0 | 0.0 | 0.00 | 0.05 | 0.00 | 98 | 1018.1 |
| 20260504201550 | 16 | 0 | 0.0 | 0.0 | 0.00 | 0.05 | 0.00 | 98 | 1018.2 |
| 20260504201043 | 16 | 0 | 0.0 | 0.0 | 0.00 | 0.05 | 0.00 | 98 | 1018.0 |
| 20260504200543 | 16 | 0 | 0.0 | 0.0 | 0.00 | 0.05 | 0.00 | 98 | 1018.0 |
| 20260504200051 | 16 | 0 | 0.0 | 0.0 | 0.00 | 0.05 | 0.00 | 98 | 1017.9 |
| 20260504195542 | 16 | 0 | 0.0 | 0.0 | 0.00 | 0.05 | 0.00 | 98 | 1018.0 |
| 20260504195043 | 17 | 0 | 0.0 | 0.0 | 0.00 | 0.05 | 0.00 | 98 | 1017.7 |
| 20260504194550 | 17 | 0 | 0.0 | 0.0 | 0.00 | 0.05 | 0.00 | 98 | 1017.8 |
| 20260504194042 | 17 | 0 | 0.0 | 0.0 | 0.00 | 0.05 | 0.00 | 98 | 1017.6 |
| 20260504193546 | 16 | 0 | 0.0 | 0.0 | 0.00 | 0.05 | 0.00 | 98 | 1017.7 |
| 20260504193058 | 16 | 0 | 0.0 | 0.0 | 0.00 | 0.05 | 0.00 | 98 | 1017.6 |
| 20260504192546 | 16 | 0 | 0.0 | 0.0 | 0.00 | 0.05 | 0.00 | 98 | 1017.5 |
| 20260504192044 | 16 | 0 | 0.0 | 0.0 | 0.00 | 0.05 | 0.00 | 98 | 1017.4 |
| 20260504191558 | 16 | 0 | 0.0 | 0.0 | 0.00 | 0.05 | 0.00 | 98 | 1017.3 |
| 20260504191043 | 16 | 0 | 0.0 | 0.0 | 0.00 | 0.05 | 0.00 | 98 | 1017.3 |
| 20260504190544 | 16 | 0 | 0.0 | 0.0 | 0.00 | 0.05 | 0.00 | 98 | 1017.5 |
| 20260504190054 | 16 | 0 | 0.0 | 0.0 | 0.00 | 0.05 | 0.00 | 98 | 1017.3 |
| 20260504185543 | 16 | 0 | 0.0 | 0.0 | 0.00 | 0.05 | 0.00 | 98 | 1017.3 |
| 20260504185043 | 17 | 0 | 0.0 | 0.0 | 0.00 | 0.05 | 0.00 | 98 | 1017.2 |
| 20260504184556 | 17 | 0 | 0.0 | 0.0 | 0.00 | 0.05 | 0.00 | 98 | 1017.4 |
| 20260504184043 | 17 | 0 | 0.0 | 0.0 | 0.00 | 0.05 | 0.00 | 98 | 1017.4 |
| 20260504183544 | 17 | 0 | 0.0 | 0.0 | 0.00 | 0.05 | 0.00 | 98 | 1017.1 |
| 20260504183058 | 16 | 0 | 0.0 | 0.0 | 0.00 | 0.05 | 0.00 | 98 | 1017.2 |
| 20260504182543 | 16 | 0 | 0.0 | 0.0 | 0.00 | 0.05 | 0.00 | 98 | 1017.3 |
| 20260504182043 | 16 | 0 | 0.0 | 0.0 | 0.00 | 0.05 | 0.00 | 98 | 1017.3 |
| 20260504181554 | 16 | 0 | 0.0 | 0.0 | 0.00 | 0.05 | 0.00 | 97 | 1017.1 |
| 20260504181041 | 16 | 0 | 0.0 | 0.0 | 0.00 | 0.05 | 0.00 | 98 | 1017.0 |
| 20260504180543 | 17 | 0 | 0.0 | 0.0 | 0.00 | 0.05 | 0.00 | 98 | 1016.9 |
| 20260504180106 | 17 | 0 | 0.0 | 0.0 | 0.00 | 0.05 | 0.00 | 98 | 1016.8 |
| 20260504175543 | 16 | 0 | 0.0 | 0.0 | 0.00 | 0.05 | 0.00 | 98 | 1016.8 |
| 20260504175043 | 17 | 0 | 0.0 | 0.0 | 0.00 | 0.05 | 0.00 | 98 | 1016.9 |
| 20260504174550 | 16 | 0 | 0.0 | 0.0 | 0.00 | 0.05 | 0.00 | 98 | 1016.8 |
| 20260504174043 | 16 | 0 | 0.0 | 0.0 | 0.00 | 0.05 | 0.00 | 98 | 1017.0 |
| 20260504173542 | 16 | 0 | 0.0 | 0.0 | 0.00 | 0.05 | 0.00 | 98 | 1017.0 |
| 20260504173105 | 16 | 0 | 0.0 | 0.0 | 0.00 | 0.05 | 0.00 | 98 | 1017.1 |
| 20260504172542 | 17 | 0 | 0.0 | 0.0 | 0.00 | 0.05 | 0.00 | 98 | 1017.2 |
| 20260504172042 | 16 | 0 | 0.0 | 0.0 | 0.00 | 0.05 | 0.00 | 98 | 1017.1 |
| 20260504171601 | 16 | 0 | 0.0 | 0.0 | 0.00 | 0.05 | 0.00 | 98 | 1017.2 |
| 20260504171043 | 16 | 0 | 0.0 | 0.0 | 0.00 | 0.03 | 0.00 | 98 | 1017.2 |
| 20260504170543 | 16 | 0 | 0.0 | 0.0 | 0.00 | 0.03 | 0.00 | 98 | 1017.1 |
| 20260504151044 | 17 | 0 | 0.0 | 0.0 | 0.00 | 0.03 | 0.00 | 97 | 1017.8 |
| 20260504150546 | 17 | 0 | 0.0 | 0.0 | 0.00 | 0.03 | 0.00 | 97 | 1017.8 |
| 20260504141044 | 17 | 0 | 0.0 | 0.0 | 0.00 | 0.03 | 0.00 | 97 | 1018.1 |
| 20260504140547 | 17 | 0 | 0.0 | 0.0 | 0.00 | 0.03 | 0.00 | 97 | 1018.1 |
| 20260504130545 | 18 | 0 | 0.0 | 0.0 | 0.00 | 0.03 | 0.03 | 97 | 1018.6 |
| 20260504110544 | 18 | 0 | 0.0 | 0.0 | 0.00 | 0.08 | 0.03 | 94 | 1019.3 |
| 20260504100544 | 20 | 0 | 0.0 | 1.6 | 0.00 | 0.08 | 0.03 | 92 | 1019.3 |
| 20260504081549 | 21 | 0 | 0.0 | 1.6 | 0.00 | 0.08 | 0.03 | 85 | 1018.0 |
| 20260504081043 | 22 | 0 | 0.0 | 6.4 | 0.00 | 0.08 | 0.03 | 85 | 1018.0 |
| 20260504080546 | 22 | 118 | 0.0 | 6.4 | 0.00 | 0.08 | 0.03 | 85 | 1017.9 |
| 20260504050541 | 26 | 116 | 3.2 | 8.0 | 0.00 | 0.08 | 0.03 | 69 | 1016.8 |
| 20260504045542 | 26 | 86 | 1.6 | 8.0 | 0.00 | 0.08 | 0.03 | 67 | 1016.8 |
| 20260504045041 | 27 | 0 | 1.6 | 8.0 | 0.00 | 0.08 | 0.03 | 68 | 1016.7 |
| 20260504044550 | 26 | 271 | 0.0 | 11.3 | 0.00 | 0.08 | 0.03 | 69 | 1016.6 |
| 20260504044042 | 26 | 269 | 3.2 | 11.3 | 0.00 | 0.08 | 0.03 | 69 | 1016.7 |
| 20260504043543 | 26 | 39 | 1.6 | 11.3 | 0.00 | 0.08 | 0.03 | 70 | 1016.7 |
| 20260504043055 | 25 | 173 | 3.2 | 16.1 | 0.00 | 0.08 | 0.03 | 70 | 1016.7 |
| 20260504042543 | 25 | 187 | 6.4 | 16.1 | 0.00 | 0.08 | 0.03 | 71 | 1016.6 |
| 20260504042043 | 26 | 182 | 3.2 | 8.0 | 0.00 | 0.08 | 0.03 | 70 | 1016.7 |
| 20260504041550 | 25 | 158 | 3.2 | 8.0 | 0.00 | 0.08 | 0.03 | 71 | 1016.7 |
| 20260504041042 | 25 | 97 | 1.6 | 8.0 | 0.00 | 0.08 | 0.03 | 71 | 1016.7 |
| 20260504040543 | 25 | 48 | 3.2 | 8.0 | 0.00 | 0.08 | 0.03 | 72 | 1016.8 |
| 20260504040054 | 25 | 82 | 0.0 | 8.0 | 0.00 | 0.08 | 0.03 | 72 | 1016.8 |
| 20260504035545 | 25 | 279 | 3.2 | 8.0 | 0.00 | 0.08 | 0.03 | 72 | 1017.0 |
| 20260504035044 | 25 | 221 | 1.6 | 9.7 | 0.00 | 0.08 | 0.03 | 73 | 1017.0 |
| 20260504034556 | 25 | 165 | 3.2 | 11.3 | 0.00 | 0.08 | 0.03 | 73 | 1016.9 |
| 20260504034048 | 25 | 94 | 4.8 | 11.3 | 0.00 | 0.08 | 0.03 | 72 | 1016.9 |
| 20260504033544 | 25 | 97 | 3.2 | 8.0 | 0.00 | 0.08 | 0.03 | 72 | 1017.0 |
| 20260504033049 | 25 | 178 | 3.2 | 11.3 | 0.00 | 0.08 | 0.03 | 73 | 1017.0 |
| 20260504032544 | 25 | 68 | 4.8 | 11.3 | 0.00 | 0.08 | 0.03 | 72 | 1017.0 |
| 20260504032044 | 25 | 122 | 4.8 | 9.7 | 0.00 | 0.08 | 0.03 | 72 | 1017.0 |
| 20260504031549 | 25 | 44 | 4.8 | 9.7 | 0.00 | 0.08 | 0.03 | 71 | 1016.9 |
| 20260504031043 | 25 | 98 | 3.2 | 8.0 | 0.00 | 0.08 | 0.03 | 70 | 1017.0 |
| 20260504030545 | 26 | 156 | 3.2 | 8.0 | 0.00 | 0.08 | 0.03 | 71 | 1017.0 |
| 20260504030051 | 25 | 330 | 1.6 | 6.4 | 0.00 | 0.08 | 0.03 | 72 | 1017.1 |
| 20260504025544 | 25 | 104 | 1.6 | 11.3 | 0.00 | 0.08 | 0.03 | 71 | 1017.1 |
| 20260504025043 | 25 | 122 | 3.2 | 11.3 | 0.00 | 0.08 | 0.03 | 71 | 1017.2 |
| 20260504024551 | 25 | 77 | 3.2 | 8.0 | 0.00 | 0.08 | 0.03 | 71 | 1017.3 |
| 20260504024044 | 25 | 106 | 3.2 | 4.8 | 0.00 | 0.08 | 0.03 | 74 | 1017.4 |
| 20260504023543 | 24 | 0 | 0.0 | 4.8 | 0.00 | 0.08 | 0.03 | 74 | 1017.4 |
| 20260504023049 | 24 | 150 | 0.0 | 3.2 | 0.00 | 0.08 | 0.03 | 76 | 1017.7 |
| 20260504022544 | 24 | 0 | 0.0 | 6.4 | 0.00 | 0.08 | 0.03 | 76 | 1017.7 |
| 20260504022044 | 24 | 0 | 0.0 | 9.7 | 0.00 | 0.08 | 0.03 | 77 | 1017.8 |
| 20260504021552 | 24 | 0 | 1.6 | 9.7 | 0.00 | 0.08 | 0.03 | 77 | 1017.9 |
| 20260504021044 | 24 | 180 | 3.2 | 6.4 | 0.00 | 0.08 | 0.03 | 76 | 1017.9 |
| 20260504020547 | 24 | 0 | 3.2 | 9.7 | 0.00 | 0.08 | 0.03 | 75 | 1018.0 |
| 20260504020058 | 24 | 0 | 1.6 | 9.7 | 0.00 | 0.08 | 0.03 | 78 | 1018.1 |
| 20260504015544 | 24 | 183 | 1.6 | 9.7 | 0.00 | 0.08 | 0.03 | 77 | 1018.0 |
| 20260504015044 | 23 | 194 | 0.0 | 6.4 | 0.00 | 0.08 | 0.03 | 79 | 1018.2 |
| 20260504014559 | 24 | 115 | 3.2 | 6.4 | 0.00 | 0.08 | 0.03 | 78 | 1018.3 |
| 20260504014045 | 24 | 0 | 0.0 | 4.8 | 0.00 | 0.08 | 0.03 | 77 | 1018.6 |
| 20260504013543 | 25 | 102 | 0.0 | 4.8 | 0.00 | 0.08 | 0.03 | 77 | 1018.5 |
| 20260504013108 | 25 | 0 | 1.6 | 4.8 | 0.00 | 0.08 | 0.03 | 78 | 1018.5 |
| 20260504012543 | 24 | 67 | 0.0 | 1.6 | 0.00 | 0.08 | 0.03 | 81 | 1018.6 |
| 20260504012046 | 23 | 0 | 0.0 | 3.2 | 0.00 | 0.08 | 0.03 | 81 | 1018.7 |
| 20260504011548 | 23 | 0 | 0.0 | 6.4 | 0.00 | 0.08 | 0.03 | 81 | 1018.9 |
| 20260504011042 | 23 | 0 | 1.6 | 6.4 | 0.00 | 0.08 | 0.03 | 81 | 1018.9 |
| 20260504010543 | 24 | 183 | 0.0 | 4.8 | 0.00 | 0.08 | 0.03 | 81 | 1019.1 |
| 20260504010050 | 23 | 0 | 0.0 | 4.8 | 0.00 | 0.08 | 0.03 | 82 | 1019.0 |
| 20260504005546 | 23 | 0 | 0.0 | 3.2 | 0.00 | 0.08 | 0.03 | 83 | 1019.1 |
| 20260504005043 | 23 | 0 | 0.0 | 6.4 | 0.00 | 0.08 | 0.03 | 84 | 1019.2 |
| 20260504004550 | 23 | 0 | 1.6 | 6.4 | 0.00 | 0.08 | 0.03 | 83 | 1019.4 |
| 20260504004043 | 23 | 0 | 1.6 | 9.7 | 0.00 | 0.08 | 0.03 | 84 | 1019.4 |